Location: Cactus School
(34.5700°N, 118.0931°W)
Time: 02:42:14
(UTC-08:00)

deb Explorer IX - All Passes

Search period start: 19 November 2019 00:00
Search period end: 29 November 2019 00:00
Orbit: 546 x 1105 km, 38.8° (Epoch: 17 November)

Date Brightness Start Highest point End Pass type
(mag) Time Alt. Az. Time Alt. Az. Time Alt. Az.
19 Nov - 00:52:33 10° WSW 00:59:17 88° SSE 01:05:03 10° ENE night (unlit)
19 Nov - 02:40:46 10° W 02:46:47 56° N 02:51:53 10° ENE visible
19 Nov - 04:28:48 10° WNW 04:34:17 69° NNE 04:38:56 10° E visible
19 Nov - 06:16:31 10° W 06:21:04 39° SSW 06:25:06 10° SE daylight
19 Nov - 22:43:46 10° SSW 22:50:05 35° SSE 22:55:52 10° E night (unlit)
20 Nov - 00:30:23 10° WSW 00:37:16 89° SSE 00:43:11 10° ENE night (unlit)
20 Nov - 02:18:37 10° W 02:24:49 57° N 02:30:05 10° ENE visible
20 Nov - 04:06:41 10° WNW 04:12:22 71° NNE 04:17:09 10° E visible
20 Nov - 05:54:28 10° W 05:59:10 38° SSW 06:03:16 10° SE visible
20 Nov - 22:21:33 10° SSW 22:28:00 36° SSE 22:33:57 10° E night (unlit)
21 Nov - 00:08:12 10° WSW 00:15:13 90° NW 00:21:19 10° ENE night (unlit)
21 Nov - 01:56:28 10° W 02:02:50 58° N 02:08:16 10° ENE night (unlit)
21 Nov - 03:44:34 10° WNW 03:50:25 72° NNE 03:55:21 10° E visible
21 Nov - 05:32:24 10° W 05:37:15 38° SSW 05:41:27 10° SE visible
21 Nov - 21:59:20 10° SSW 22:05:54 37° SSE 22:12:01 10° E night (unlit)
21 Nov - 23:46:02 10° WSW 23:53:08 89° NNW 23:59:25 10° ENE night (unlit)
22 Nov - 01:34:17 10° W 01:40:50 58° N 01:46:26 10° ENE night (unlit)
22 Nov - 03:22:26 10° WNW 03:28:28 74° NNE 03:33:33 10° E visible
22 Nov - 05:10:20 10° W 05:15:19 38° SSW 05:19:38 10° SE visible
22 Nov - 21:37:09 10° SSW 21:43:47 38° SSE 21:50:03 10° E night (unlit)
22 Nov - 23:23:52 10° WSW 23:31:04 88° NNW 23:37:30 10° ENE night (unlit)
23 Nov - 01:12:07 10° W 01:18:49 59° N 01:24:34 10° ENE night (unlit)
23 Nov - 03:00:16 10° WNW 03:06:30 75° NNE 03:11:44 10° ESE visible
23 Nov - 04:48:13 10° W 04:53:22 38° SSW 04:57:49 10° SE visible
23 Nov - 21:14:58 10° SSW 21:21:41 39° SSE 21:28:05 10° E night (unlit)
23 Nov - 23:01:41 10° WSW 23:08:58 87° NNW 23:15:34 10° ENE night (unlit)
24 Nov - 00:49:56 10° W 00:56:46 59° N 01:02:42 10° ENE night (unlit)
24 Nov - 02:38:06 10° WNW 02:44:31 77° NNE 02:49:55 10° ESE visible
24 Nov - 04:26:06 10° W 04:31:25 39° SW 04:35:58 10° SE visible
24 Nov - 19:12:02 10° SE 19:12:59 10° SE 19:13:56 10° SE visible
24 Nov - 20:52:49 10° SSW 20:59:33 40° SE 21:06:04 10° E visible
24 Nov - 22:39:32 10° WSW 22:46:53 86° NNW 22:53:36 10° ENE night (unlit)
25 Nov - 00:27:46 10° W 00:34:43 60° N 00:40:49 10° ENE night (unlit)
25 Nov - 02:15:55 10° WNW 02:22:30 78° NNE 02:28:04 10° ESE visible
25 Nov - 04:03:57 10° W 04:09:26 39° SW 04:14:08 10° SE visible
25 Nov - 18:49:30 10° SE 18:50:52 11° SE 18:52:14 10° ESE visible
25 Nov - 20:30:40 10° SSW 20:37:24 41° SSE 20:44:02 10° E visible
25 Nov - 22:17:23 10° WSW 22:24:45 86° NNW 22:31:37 10° ENE night (unlit)
26 Nov - 00:05:36 10° W 00:12:39 60° N 00:18:54 10° ENE night (unlit)
26 Nov - 01:53:44 10° WNW 02:00:28 79° NNE 02:06:13 10° ESE night (unlit)
26 Nov - 03:41:48 10° W 03:47:26 39° SW 03:52:18 10° SSE visible
26 Nov - 18:27:09 10° SSE 18:28:46 11° SE 18:30:23 10° ESE visible
26 Nov - 20:08:32 10° SW 20:15:15 42° SSE 20:21:58 10° ENE visible
26 Nov - 21:55:14 10° WSW 22:02:38 85° NNW 22:09:37 10° ENE night (unlit)
26 Nov - 23:43:25 10° W 23:50:34 61° N 23:56:59 10° E night (unlit)
27 Nov - 01:31:33 10° WNW 01:38:26 80° NNE 01:44:20 10° ESE night (unlit)
27 Nov - 03:19:38 10° W 03:25:26 39° SW 03:30:25 10° SSE visible
27 Nov - 18:04:53 10° SSE 18:06:39 11° SE 18:08:27 10° ESE visible
27 Nov - 19:46:25 10° SW 19:53:07 43° SSE 19:59:55 10° ENE visible
27 Nov - 21:33:06 10° WSW 21:40:29 84° NNW 21:47:35 10° ENE visible
27 Nov - 23:21:15 10° W 23:28:28 61° N 23:35:02 10° E night (unlit)
28 Nov - 01:09:21 10° WNW 01:16:22 81° NNE 01:22:26 10° ESE night (unlit)
28 Nov - 02:57:27 10° W 03:03:24 39° SW 03:08:33 10° SSE visible
28 Nov - 17:42:41 10° SSE 17:44:32 11° SE 17:46:25 10° ESE visible
28 Nov - 19:24:18 10° SW 19:30:58 43° SSE 19:37:48 10° ENE visible
28 Nov - 21:10:59 10° WSW 21:18:20 84° NNW 21:25:32 10° ENE visible
28 Nov - 22:59:05 10° W 23:06:21 62° N 23:13:03 10° E night (unlit)
